Regional Weather Roundup
Issued by NWS

Home | Current Version | Previous Version | Graphics & Text | Print | Product List | Glossary On
Versions: 1 2 3 4 5 6 7 8 9 10 11 12 13 14 15 16 17 18 19 20 21 22 23 24 25 26 27 28
000
ASUS45 KSLC 262210
RWRUT

UTAH REGIONAL WEATHER ROUNDUP
NATIONAL WEATHER SERVICE SALT LAKE CITY UT
400 PM MDT THU APR 26 2018

UTZ001>011-023>025-262300-

NORTHERN UTAH

CITY           SKY/WX    TMP DP  RH WIND       PRES   REMARKS
BRIGHAM CITY   SUNNY     74  21  13 NW7       30.13F
HILL AFB       SUNNY     71  28  20 NW5       30.14F
LOGAN          SUNNY     71  34  25 VRB5      30.13F
OGDEN          SUNNY     73  28  18 NW9       30.12F
SALT LAKE CITY SUNNY     75  31  19 N10G18    30.10F
TOOELE VALLEY  SUNNY     70  34  26 N9        30.13F
WENDOVER       SUNNY     74  22  14 E10G16    30.13F
HEBER CITY       N/A     72  18  13 W3        30.13F
WEST JORDAN    SUNNY     71  37  29 N7        30.13F

$$

UTZ011>015-024>027-262300-

CENTRAL/NORTHEAST UTAH

CITY           SKY/WX    TMP DP  RH WIND       PRES   REMARKS
PROVO AIRPORT  SUNNY     73  25  16 VRB7      30.12F
MOAB/CANYONLAN SUNNY     76  18  11 NE10      30.08F
DELTA          SUNNY     73  18  12 N6        30.10F
PRICE          SUNNY     72  14  11 VRB5      30.16F
RICHFIELD      SUNNY     77  16  10 NE6G13    30.09F
ROOSEVELT      SUNNY     68  23  18 S7        30.21F
VERNAL         SUNNY     68  27  21 VRB3      30.19F

$$

UTZ013>016-019>022-027-262300-

SOUTHERN UTAH

CITY           SKY/WX    TMP DP  RH WIND       PRES   REMARKS
BRYCE CANYON   SUNNY     72  14  11 W9G17     30.21F
CEDAR CITY     SUNNY     78  23  13 NW13G18   30.08F
MILFORD        SUNNY     77  22  13 N16       30.09F
ST GEORGE      CLEAR     91  26   9 W9        29.91F
HANKSVILLE     SUNNY     79  18  10 NE8       30.11F
KANAB          SUNNY     82  19   9 E1        30.07F
BLANDING         N/A     75  11   8 SE8       30.18F

$$

REGIONAL REPORTS     COLORADO/ARIZONA

CITY           SKY/WX    TMP DP  RH WIND       PRES   REMARKS
CRAIG, CO      SUNNY     61  22  22 VRB3      30.24F
GRAND JUNCTION SUNNY     73  21  14 CALM      30.11F
RIFLE, CO      SUNNY     68  20  16 W7        30.17F
MONTROSE, CO   SUNNY     69  13  11 N10G18    30.17F
CORTEZ, CO     SUNNY     76   2   5 N15G25    30.08F
COLORADO CITY    N/A     86  25  10 W8        30.06F
PAGE, AZ       SUNNY     82  16   8 E7        30.03F
GRAND CANYON   SUNNY     76  14   9 CALM      30.15F
KINGMAN, AZ    SUNNY     93  24   8 SW21G26   29.93F
FLAGSTAFF, AZ  MOSUNNY   74  20  13 N6        30.15F

$$

REGIONAL REPORTS    NEVADA/IDAHO/WYOMING

CITY           SKY/WX    TMP DP  RH WIND       PRES   REMARKS
LAS VEGAS, NV  MOSUNNY   93  22   7 VRB3      29.86F
ELY, NY        SUNNY     73  12   9 VRB3      30.12F
ELKO, NV       SUNNY     76  25  15 VRB6      30.09F
POCATELLO, ID  SUNNY     71  20  14 NW13      30.16F
BURLEY, ID     SUNNY     72  24  16 NE9G23    30.11F
FORT BRIDGER,    N/A     64  12  13 E7        30.29F
EVANSTON, WY   SUNNY     65  19  17 VRB3      30.25F
ROCK SPRINGS,  SUNNY     61  14  16 VRB7      30.26F
KEMMERER, WY   SUNNY     61  14  16 S5        30.28F

$$




USA.gov is the U.S. government's official web portal to all federal, state and local government web resources and services.